www.pogodaiklimat.ru

Погода и климат >> Архив погоды >> Сенегал >> Matam


ПОГОДА в Matam

  • Прогноз погоды в Matam
  • Монитор погоды в Matam
  • Климат города

АРХИВ ПОГОДЫ в Matam

Время (UTC), дата Ветер
(напр.,м/с)
 
Видим.   Явления Облачность Т
(С)
Тd
(С)
f
(%)
Тe
(С)
Тes
(С)
Комфортность P
(гПа)
Po
(гПа)
Тmin
(С)
Tmax
(С)
R
(мм)
R24
(мм)
S
(см)
00 14.09 штиль 0 10 км зарница 4/1 900 м
[Cb calv Ci sp]
+30.0 +25.8 78 +45 +45 опасность
перегрева
1011.2 1009.3
03 14.09 ЮЗ 1 10 км ясно +29.5 +25.3 78 +43 +43 опасность
перегрева
1009.9 1008.0
06 14.09 штиль 0 10 км ясно +28.5 +25.7 85 +42 +42 опасность
перегрева
1010.7 1008.8 +27.8
09 14.09 СЗ 1 10 км 4/3 480 м
[Cu med, cong Ci sp]
+31.0 +25.4 72 +45 +50 опасность
перегрева
1012.7 1010.8
12 14.09 З 1 10 км гроза без осадков {дождь} 9/4 400 м
[Cb cap Ac As]
+25.2 +22.9 87 +33 +40 очень
душно
1014.7 1012.8 2
15 14.09 СЗ 1 10 км гроза без осадков 9/0
[Ac As]
+27.6 +24.6 84 +39 +46 очень
душно
1012.2 1010.3
18 14.09 З 1 10 км 8/0
[Ci sp]
+30.0 +24.3 72 +42 +43 опасность
перегрева
1011.0 1009.1 +32.0
21 14.09 СЗ 1 10 км ясно +28.0 +24.4 81 +39 +39 очень
душно
1011.6 1009.7
00 15.09 С 1 10 км ясно +27.0 +25.2 90 +39 +39 очень
душно
1012.7 1010.8
03 15.09 С 1 10 км ясно +26.1 +23.0 83 +35 +35 очень
душно
1012.0 1010.1
06 15.09 СЗ 1 10 км ясно +26.0 +23.1 84 +35 +35 очень
душно
1012.1 1010.2 +25.0 2
09 15.09 СЗ 1 10 км 4/0
[Ac trans]
+27.5 +23.6 79 +37 +43 очень
душно
1013.0 1011.1
12 15.09 СЗ 1 10 км ясно +32.1 +24.0 62 +44 +69 опасность
перегрева
1012.8 1010.9
15 15.09 штиль 0 10 км ясно +36.0 +24.1 50 +47 +68 опасность
перегрева
1009.5 1007.6
18 15.09 Ю 1 10 км ясно +34.8 +24.6 56 +48 +49 опасность
перегрева
1008.8 1006.9 +36.5
21 15.09 Ю 1 10 км ясно +31.5 +25.2 69 +45 +45 опасность
перегрева
1011.3 1009.4
00 16.09 СЗ 1 10 км ясно +30.5 +25.6 75 +45 +45 опасность
перегрева
1013.4 1011.5
06 16.09 З 1 10 км ясно +28.4 +24.3 78 +40 +40 очень
душно
1011.0 1009.1 +27.5
09 16.09 З 1 10 км ясно +29.5 +25.6 80 +44 +51 опасность
перегрева
1012.5 1010.6
12 16.09 СЗ 2 10 км ясно +34.2 +26.1 63 +50 +71 опасность
перегрева
1012.4 1010.5
15 16.09 СЗ 1 8000 м 6/0
[Ci sp]
+37.0 +24.4 49 +49 +66 опасность
перегрева
1010.1 1008.2
18 16.09 штиль 0 8000 м ясно +37.0 +25.2 51 +51 +52 опасность
перегрева
1009.6 1007.7 +39.0
21 16.09 штиль 0 10 км ясно +32.5 +25.8 68 +48 +48 опасность
перегрева
1010.1 1008.2
00 17.09 штиль 0 10 км 4/0
[Ac trans]
+31.5 +27.4 79 +50 +50 опасность
перегрева
1011.5 1009.7
03 17.09 штиль 0 10 км 4/0
[Ac trans]
+30.1 +26.8 83 +47 +47 опасность
перегрева
1010.3 1008.4
06 17.09 штиль 0 10 км 4/0
[Ac trans]
+29.0 +26.9 88 +45 +45 опасность
перегрева
1009.8 1007.9 +28.5
06 18.09 З 3 10 км гроза без осадков {дождь} 9/4 400 м
[Cb cap Ac As]
+27.0 +24.1 84 +37 +37 очень
душно
1008.9 1007.0 +26.0 90
09 18.09 СЗ 2 10 км гроза без осадков {дождь} 9/4 400 м
[Cb cap Ac As]
+25.0 +23.8 93 +34 +35 очень
душно
1012.6 1010.7
12 18.09 З 1 10 км {гроза, дождь} 9/3 400 м
[Sc Ac As]
+26.8 +24.5 87 +38 +44 очень
душно
1012.7 1010.8 2
15 18.09 СЗ 1 10 км 8/3 480 м
[Cu Sc Ac trans Ci sp]
+30.3 +25.3 75 +44 +52 опасность
перегрева
1010.5 1008.6
18 18.09 ЮВ 1 10 км гроза без осадков 9/4 480 м
[Cb cap Ac trans Ci sp]
+30.8 +24.4 69 +43 +44 опасность
перегрева
1011.5 1009.6 +32.3 2
21 18.09 штиль 0 10 км {гроза, дождь} 9/0
[Ac As]
+26.0 +24.3 90 +36 +36 очень
душно
1011.8 1009.9
00 19.09 штиль 0 10 км {гроза, дождь} 9/0
[Ac As]
+26.5 +25.2 93 +38 +38 очень
душно
1014.1 1012.2 0.6
03 19.09 штиль 0 10 км 9/0
[Ac As]
+26.6 +24.9 90 +38 +38 очень
душно
1011.7 1009.8
06 19.09 штиль 0 10 км 9/0
[Ac As]
+26.4 +25.0 92 +38 +38 очень
душно
1012.6 1010.7 +24.8 3
09 19.09 С 1 10 км 9/0
[Ac As]
+27.3 +25.5 90 +40 +43 очень
душно
1013.6 1011.7
00 20.09 С 1 10 км ясно +30.0 +25.8 78 +45 +45 опасность
перегрева
1014.7 1012.8
03 20.09 СЗ 1 10 км ясно +29.0 +26.2 85 +44 +44 опасность
перегрева
1013.5 1011.6
06 20.09 С 1 10 км ясно +28.0 +24.6 82 +40 +40 очень
душно
1012.9 1011.0 +27.3

 

Местоположение метеостанции Matam (Сенегал): широта 15.65 долгота -13.25 высота над уровнем моря 17 м.

В архиве по умолчанию представлена погода в Matam за последнюю неделю. Архивные данные за месяц целиком и за предыдущие месяцы, начиная с января 2011 года, Вы можете получить, выбрав интересующий диапазон дат из раскрывающегося списка и нажав кнопку "Ввод!".


*Определитесь, кто Вы:
робот инопланетянин человек

Внимание! Время в таблицах - всемирное. Для получения местного времени необходимо прибавить поправку, которая в Matam равна 0 ч.

Смотрите также архив погоды в соседних городах и на ближайших метеорологических станциях:

Погода в Kaedi (Мавритания) (62 км)
Погода в Fatoto (Гамбия) (198 км)
Погода в Linguere (Сенегал) (202 км)
Погода в Podor (Сенегал) (214 км)
Погода в Tambacounda (Сенегал) (214 км)
Погода в Kiffa (Мавритания) (226 км)
Погода в Kayes (Мали) (238 км)
Погода в Boutilimit (Мавритания) (259 км)
Погода в Georgetown (Гамбия) (287 км)
Погода в Rosso (Мавритания) (289 км)

Пояснения к столбцам:

Ветер - указаны скорость ветра в м/с - средняя за 10 мин, порывы в срок и между сроками (в фигурных скобках) и направление, откуда дует ветер: С - северный, СВ - северо-восточный, В - восточный, ЮВ - юго-восточный, Ю - южный, ЮЗ - юго-западный, З - западный, СЗ - северо-западный.
Видимость - горизонтальная дальность видимости в метрах или километрах. При видимости от 1 до 10 км при отсутствии осадков обычно наблюдается дымка, при ухудшении видимости до 1 км и менее - туман. В сухую погоду видимость может ухудшаться дымом, пылью или мглою.
Явления - указаны атмосферные явления, наблюдавшиеся в срок или в последний час перед сроком; фигурными скобками обозначены явления, наблюдавшиеся между сроками (за 1-3 часа до срока); квадратными скобками обозначены град или гололедные отложения с указанием их диаметра в мм.
Облачность - указаны через наклонную черту общая и нижняя облачность в баллах и высота нижней границы облаков в метрах; квадратными скобками обозначены формы облаков: Ci - перистые, Cs - перисто-слоистые, Cc - перисто-кучевые, Ac - высококучевые, As - высокослоистые, Sc - слоисто-кучевые, Ns - слоисто-дождевые, Cu - кучевые, Cb - кучево-дождевые. Подробнее классификацию облаков см. в Атласе облаков (PDF).
T - Температура воздуха - температура, измеренная на высоте 2 м над землей.
Td - Температура точки росы - температура, при понижении до которой содержащийся в воздухе водяной пар достигнет насыщения.
f - Относительная влажность воздуха - влажноcть воздуха, измеренная на высоте 2 м над землей.
Te - Эффективная температура - температура, которую ощущает одетый по сезону человек в тени. Характеристика душности погоды. При расчете учитывается влияние влажности воздуха и скорости ветра на теплоощущения человека.
Tes - Эффективная температура на солнце - температура, которую ощущает человек, с поправкой на солнечный нагрев. Характеристика знойности погоды. Зависит от высоты солнца над горизонтом, облачности и скорости ветра. Ночью, в пасмурную погоду, а также при ветре 12 м/с и более поправка равна нулю.
P - Атмосферное давление - приведенное к уровню моря атмосферное давление.
Po - Атмосферное давление - измеренное на уровне метеостанции атмосферное давление.
Tmin - Минимальная температура - минимум температуры воздуха на высоте 2 м над землей.
Tmax - Максимальная температура - максимум температуры воздуха на высоте 2 м над землей.
R - Количество осадков - Количество выпавших осадков за период времени, мм. При наведении курсора мыши на число - период времени, за который выпало указанное количество осадков.
R24 - Количество осадков - Количество выпавших осадков за 24 часа, мм.
S - Снежный покров - Высота снежного покрова, см. При наведении курсора мыши на число - состояние снежного покрова и степень покрытия местности в баллах.